Wind_Speed
5 4 3 8 6 9 11 12 11 10 5 4 5 4 5 13 14 14 14 15 17 15 18 13 4 7 12 17 19 26 26 20 18 26 32 30 25 27 25 18 19 18 19 19
4 6 7 5 8 10 10 13 8 8 7 5 6 9 14 10 11 8 11 12 16 18 18 16 11 9 14 12 17 21 30 22 15 8 24 26 27 27 21 19 20 20 21 19
4 4 3 7 9 11 11 9 11 12 11 11 6 6 5 7 10 10 10 10 13 15 18 17 19 6 8 12 17 20 29 22 31 31 26 27 27 24 19 20 22 23 24 23
6 3 3 7 7 10 8 11 10 10 5 4 5 2 4 5 8 14 12 9 11 14 15 16 19 15 5 8 13 21 19 25 18 23 29 29 22 22 18 21 21 19 19 22
2 3 5 7 7 8 6 11 13 6 7 5 7 3 5 12 12 15 12 11 11 9 11 15 17 26 11 9 16 17 26 18 12 28 32 28 27 24 23 17 18 18 18 22
7 3 1 4 11 10 9 14 4 4 3 2 6 2 4 5 4 10 12 11 12 11 12 12 22 29 13 16 15 21 26 18 19 14 18 22 23 21 16 13 12 15 18 20
7 6 4 2 8 3 9 10 3 3 3 1 6 3 1 5 1 4 12 12 11 11 11 11 12 5 22 17 14 20 24 24 26 21 14 13 9 17 17 14 15 16 17 19
3 3 1 5 2 4 8 5 2 2 3 4 6 2 2 1 6 8 9 10 12 14 13 14 13 16 16 18 19 27 24 24 20 23 22 23 18 14 9 10 9 10 12 14
4 1 4 2 2 4 5 4 1 1 5 2 4 4 4 9 8 9 11 13 13 13 14 13 17 20 17 19 19 24 26 23 25 25 23 22 18 17 14 13 14 11 9 10
2 4 2 4 3 4 2 1 1 2 3 5 2 5 4 8 9 11 13 12 12 12 12 12 14 21 23 25 25 27 28 27 26 27 25 24 19 17 16 15 15 9 8 7
3 3 4 2 3 4 2 1 2 2 1 2 4 3 6 7 7 9 9 11 12 11 11 10 13 21 23 26 27 29 30 30 29 26 22 22 18 17 16 15 15 12 9 8
4 4 4 4 6 4 3 3 2 1 4 3 4 2 7 8 6 10 10 9 5 8 8 9 14 18 21 21 23 22 24 25 25 25 24 25 23 22 22 23 22 18 14 10
2 4 4 3 1 2 4 6 1 3 3 6 1 2 6 8 7 8 8 8 6 7 7 9 13 15 16 19 21 23 23 22 22 26 26 25 24 26 28 28 25 23 21 20
1 3 6 5 4 1 4 4 4 4 1 5 2 3 7 7 8 7 7 7 5 6 7 9 9 11 14 18 20 20 21 21 21 25 25 27 25 25 26 24 23 23 19 20
2 4 7 9 8 7 7 7 7 8 8 3 4 5 3 8 9 8 7 9 8 6 7 9 8 10 13 16 21 21 21 21 22 24 25 24 23 24 23 21 21 20 19 18
5 3 4 10 13 7 7 6 6 7 9 7 7 8 8 8 9 8 8 7 7 7 7 8 7 14 13 15 17 18 19 20 21 22 22 21 20 20 18 17 18 17 15 13
6 3 2 4 3 6 8 11 12 9 6 8 7 4 8 7 8 8 9 8 7 8 7 7 8 14 16 16 17 17 17 17 18 19 18 17 16 16 15 15 15 13 13 11
5 3 1 4 7 4 4 4 3 4 7 8 4 6 8 8 7 7 9 9 9 9 8 7 13 16 17 16 16 17 17 17 16 16 15 13 13 13 13 12 12 10 9 9
4 4 2 2 4 8 8 4 4 5 5 10 7 9 6 7 6 5 9 8 10 9 13 16 17 16 17 17 16 16 16 16 16 15 13 12 11 12 11 10 9 8 6 6
5 4 2 3 3 4 4 5 3 3 4 4 9 9 9 8 5 5 10 9 12 19 21 22 22 20 18 17 16 16 16 15 14 13 12 11 12 11 11 9 7 6 5 4
4 4 7 5 4 6 6 9 4 2 5 3 4 9 9 7 4 2 12 8 19 21 23 24 23 21 21 20 18 16 15 15 14 12 11 11 10 10 8 7 5 4 4 4
8 8 5 4 5 8 13 6 6 5 3 5 5 7 8 8 6 7 9 9 13 17 22 26 24 22 22 20 19 18 16 17 13 12 12 11 10 8 6 5 5 4 4 4
5 7 6 8 6 3 14 3 7 7 6 6 6 5 8 9 8 7 8 9 10 20 22 25 24 23 24 22 20 19 21 17 15 13 12 10 8 6 6 5 5 5 4 4
5 4 3 4 5 9 10 5 7 5 5 7 6 7 7 7 9 9 7 8 8 19 21 25 24 23 25 24 21 22 22 19 17 15 13 11 9 7 5 5 4 4 4 3
5 10 8 3 3 5 8 9 8 7 6 4 7 7 9 8 7 9 9 8 13 19 24 27 23 23 25 26 21 26 23 20 18 16 14 11 9 9 6 5 4 3 2 2
6 8 7 7 8 8 7 14 10 9 10 10 9 8 8 8 8 8 10 17 18 19 24 25 26 26 27 27 24 26 24 22 20 18 15 13 10 9 7 5 4 2 2 5
Wind_Direction
227 289 18 5 351 306 290 299 294 358 84 342 310 72 29 46 31 12 354 2 337 322 322 327 127 315 312 176 181 192 208 208 208 164 160 163 168 174 170 175 168 172 176 177
262 236 44 344 289 288 327 311 342 320 320 233 313 282 90 29 50 18 347 349 331 331 324 314 300 211 262 201 207 195 196 187 286 247 166 167 173 182 170 167 170 173 175 178
306 37 8 328 311 355 328 14 338 307 304 272 306 93 57 40 46 11 3 338 325 320 328 324 320 213 278 195 201 190 198 217 222 239 172 167 166 155 151 155 156 169 175 179
266 65 338 324 314 1 307 14 324 314 309 334 31 287 173 42 18 6 342 346 328 326 323 317 311 301 294 232 186 185 192 192 199 227 180 163 150 143 147 152 158 165 182 190
106 19 356 310 7 329 281 310 288 277 299 311 22 333 82 28 357 340 330 351 334 321 309 304 305 302 204 277 169 172 185 184 169 309 172 161 151 153 159 149 162 169 173 185
272 91 246 340 312 278 303 305 251 236 226 254 26 82 20 15 341 327 339 350 340 333 320 309 298 285 123 105 126 118 150 117 154 174 7 132 153 150 154 178 191 189 177 178
200 165 121 287 308 92 356 352 5 2 12 43 17 78 82 350 348 9 355 357 350 340 339 332 293 63 79 98 106 112 124 140 139 122 162 159 161 146 149 173 189 203 202 196
316 194 329 30 32 311 298 359 102 267 340 297 302 349 23 21 157 88 32 17 6 5 0 0 21 56 80 87 95 100 132 143 152 145 154 148 168 148 138 129 152 167 176 189
346 66 140 85 307 332 339 55 91 341 208 275 201 109 219 66 45 54 37 21 16 14 5 13 26 34 64 79 90 100 108 112 112 121 122 113 113 101 101 106 122 129 146 174
87 289 108 119 214 241 324 253 207 175 5 305 30 82 8 32 27 35 23 25 21 13 14 26 31 38 53 65 80 88 91 96 100 105 99 99 109 112 108 110 122 118 142 168
323 236 162 167 203 21 187 178 272 167 167 306 318 72 32 57 47 59 39 32 28 17 21 29 41 48 51 64 69 80 93 96 100 101 101 103 111 111 111 113 109 109 115 144
68 327 286 81 88 23 339 345 303 39 341 283 228 102 87 88 61 97 78 61 43 38 25 49 53 58 62 62 70 74 89 101 101 104 103 99 101 102 100 96 90 90 96 110
76 224 286 115 108 161 245 162 221 249 230 248 332 137 112 106 88 83 96 96 68 63 45 61 63 62 66 77 78 80 84 86 89 92 91 92 92 91 88 84 87 86 89 91
59 271 271 290 338 3 256 238 171 242 262 336 55 73 137 117 119 110 111 107 96 104 102 81 82 71 75 91 93 94 94 91 90 93 93 91 91 90 88 88 89 91 94 97
215 267 274 273 297 295 265 259 254 235 239 251 330 356 21 127 136 138 139 138 123 100 105 106 103 96 88 87 93 98 98 97 97 94 93 91 92 90 90 91 94 94 91 90
183 273 294 284 259 242 270 254 229 238 244 252 273 276 115 110 112 141 155 141 136 130 119 115 116 109 105 101 101 101 103 103 105 100 95 95 94 93 95 94 89 87 87 84
161 216 343 279 139 241 249 219 219 205 221 213 235 126 122 140 157 163 149 155 147 144 140 135 125 128 129 123 120 113 110 109 104 103 103 101 98 98 94 83 86 87 86 87
176 195 248 274 306 229 145 95 3 217 206 199 143 153 163 167 169 156 151 157 152 149 152 145 135 132 132 132 129 127 126 121 116 112 108 106 102 97 95 97 94 90 88 83
261 189 212 222 295 299 154 182 168 172 250 210 200 158 165 134 130 169 160 164 157 158 157 151 145 143 139 141 140 135 132 129 125 119 116 114 113 108 107 97 96 82 85 74
248 268 215 187 243 241 128 135 123 85 270 191 171 160 154 129 171 226 173 166 152 160 162 155 153 154 154 152 150 145 140 136 126 123 120 116 117 116 112 113 103 98 87 80
166 193 206 217 259 280 152 140 138 158 212 147 191 152 150 172 204 248 150 158 155 160 163 160 160 165 162 161 160 154 152 138 136 135 129 124 124 121 119 116 101 89 74 63
166 163 181 199 196 254 139 107 183 174 130 160 171 149 158 159 145 145 154 160 153 154 158 164 166 170 168 171 168 162 153 145 145 144 138 136 136 126 126 125 106 87 61 53
194 181 175 182 208 159 173 157 190 160 162 180 168 157 163 159 164 171 162 164 160 160 162 170 176 170 171 177 180 167 154 155 156 153 150 145 136 137 132 120 109 96 67 49
224 172 191 106 209 184 199 206 164 178 166 171 176 171 175 181 164 171 178 170 167 168 168 175 182 170 173 180 184 175 162 163 162 160 158 156 154 145 129 118 112 98 91 73
178 152 183 238 263 125 206 209 195 192 199 207 184 182 179 188 195 173 179 184 181 175 175 179 184 176 178 181 180 171 170 168 167 164 163 165 175 158 154 152 154 147 93 7
165 170 172 211 176 175 190 208 182 183 194 210 203 209 209 199 208 195 186 186 182 184 178 181 186 179 179 180 172 168 173 173 170 165 167 172 168 171 166 163 170 162 29 25
Height
768 781 782 779 778 777 776 775 771 763 758 768 764 766 767 766 769 771 768 767 759 749 741 736 734 737 739 740 746 751 761 765 772 771 776 783 790 794 798 802 804 809 817 822
773 785 774 771 772 772 771 772 772 766 757 762 764 765 768 770 776 777 774 769 764 755 747 738 736 737 739 741 746 750 757 761 748 776 775 780 785 791 796 798 803 808 814 821
782 774 768 772 773 775 775 781 782 781 764 757 763 773 770 772 776 775 772 772 767 763 755 746 740 737 739 740 744 750 755 759 763 776 774 779 784 787 794 798 801 807 812 818
775 767 773 775 773 777 786 771 772 772 772 782 759 792 782 778 779 776 777 774 770 764 759 752 744 738 739 740 743 749 756 760 766 774 777 780 782 786 793 797 802 808 812 817
779 777 781 780 778 775 780 768 767 770 776 771 772 785 777 774 784 781 776 773 771 768 764 756 750 742 738 739 741 750 756 762 767 779 771 773 781 783 795 799 805 806 812 816
774 770 774 777 772 768 765 763 755 766 774 791 777 786 786 789 789 781 775 775 772 768 763 758 751 739 736 740 745 753 759 761 765 777 769 768 783 787 794 801 804 807 811 815
769 773 771 772 777 767 770 777 800 799 797 795 770 784 793 781 780 783 780 778 774 769 763 757 742 737 741 746 750 758 762 768 769 767 776 781 791 789 787 794 795 804 809 817
785 790 776 773 779 785 780 782 815 827 816 807 774 794 786 771 775 778 780 779 775 769 765 760 752 750 751 754 756 762 767 772 776 777 781 777 791 790 794 790 797 802 808 813
789 784 775 776 775 777 780 794 788 806 798 805 784 781 776 770 772 775 781 780 778 775 772 766 760 758 757 760 765 767 771 776 779 780 785 786 796 794 795 796 801 806 809 812
784 798 771 774 776 776 777 777 797 798 828 807 776 783 792 783 780 778 784 786 784 782 778 773 771 767 765 765 769 773 774 779 782 783 786 787 791 796 799 802 802 806 810 812
783 788 784 775 779 781 783 781 780 784 789 805 801 800 775 783 781 786 787 791 792 788 786 782 779 776 775 774 775 778 781 782 786 788 791 794 800 800 802 804 801 804 808 811
786 792 793 778 774 773 777 780 780 798 799 793 789 797 773 778 781 785 790 795 792 793 790 788 786 785 784 784 783 786 788 790 793 795 799 800 803 806 807 804 804 805 810 814
785 790 796 792 786 778 782 777 780 782 786 796 799 795 771 776 782 783 791 796 794 794 792 792 792 791 792 792 793 794 796 799 800 801 803 804 807 810 807 808 808 811 817 818
786 788 789 793 782 773 780 775 776 784 798 785 785 779 775 776 782 786 791 795 795 794 795 796 797 797 797 798 800 801 802 804 806 806 808 809 811 810 808 813 815 817 824 821
787 791 779 774 771 772 774 776 776 784 782 789 776 777 767 772 777 784 786 791 792 794 794 796 799 801 801 801 803 805 807 807 809 811 812 813 815 812 814 820 821 823 825 826
784 791 782 782 766 764 773 769 770 774 774 773 773 775 762 767 774 780 784 787 791 793 793 795 798 802 805 806 806 808 809 811 812 813 814 815 817 819 823 827 824 825 827 831
784 788 785 783 763 766 776 761 761 764 762 766 778 770 766 770 773 777 781 784 789 793 795 797 798 801 803 805 807 810 811 813 814 816 819 820 821 823 824 823 825 829 832 835
780 783 786 794 779 786 759 747 751 751 753 757 759 762 764 766 767 770 775 781 786 790 794 797 799 802 805 807 809 811 813 815 817 819 820 822 824 825 825 828 831 834 836 837
778 779 789 797 786 760 756 755 756 759 756 749 753 758 760 762 766 769 770 774 780 785 789 794 800 804 805 808 810 812 814 817 819 821 823 825 827 828 830 833 834 836 838 839
781 780 786 785 793 784 753 750 747 749 773 738 745 753 759 765 783 775 766 769 775 781 786 791 796 801 806 810 812 814 816 818 820 822 824 826 828 830 832 835 837 838 839 840
787 790 792 791 790 765 742 748 748 769 763 740 740 747 756 766 765 755 759 766 771 778 784 789 794 799 802 805 810 814 817 819 821 823 825 827 829 831 833 835 836 838 839 839
767 779 786 781 782 780 738 749 758 746 739 740 740 744 751 754 757 758 761 766 769 775 781 786 791 795 800 805 807 810 814 817 821 824 826 828 830 832 833 835 835 837 838 839
752 740 753 754 752 728 729 727 732 731 738 740 741 742 746 751 755 757 761 764 768 771 777 784 788 792 797 802 806 808 811 815 819 823 826 828 829 832 833 834 835 836 837 838
729 722 736 735 727 727 727 725 727 729 731 734 736 740 743 748 751 754 758 761 765 770 774 780 786 790 793 798 802 806 809 813 817 821 825 827 829 831 832 833 835 836 836 837
716 719 726 726 720 720 723 724 724 728 730 732 734 736 741 744 746 749 754 757 760 765 770 775 781 786 790 794 798 801 806 811 815 818 822 826 828 830 832 833 834 836 836 836
701 711 720 718 707 713 715 714 717 724 727 729 732 734 736 738 742 743 747 749 754 759 764 770 775 781 786 791 794 798 803 809 812 816 819 823 826 829 830 832 834 835 836 836